CSS (WENTIAN)

导读

CSS(WENTIAN)是中国天宫空间站的问天实验舱,于2022年7月24日成功发射。作为中国空间站首个科学实验舱,它是国家太空实验室的核心组成部分,具备生命科学、材料科学、微重力物理等多领域研究能力,还为航天员提供更充裕的驻留空间,大幅提升了空间站供电、出舱活动能力,标志着中国载人航天工程取得关键进展,为空间科学研究和长期在轨驻留奠定重要基础。

基本信息
目录编号:
53239
目录名称:
CSS (WENTIAN)
国际标识:
2022-085A
轨道中心:
EARTH
卫星名称:
CSS (WENTIAN)
卫星全名:
--
卫星状态:
在轨 (已飞行1504 天)
发射日期:
2022-07-24 UTC
国别 :
中国 (CN)
星等 :
--
轨道信息
数据来源 国际轨道数据
星历时间: 2026-09-05T12:08:12+0800
8小时前
查看轨道信息
半长轴: 6766.98km
偏心率: 0.0002296
轨道倾角: 41.468°
近地点辐角 258.875°
升交点赤经 196.432°
平近点角 101.183°
近地点: 387.289km
远地点: 390.397km
周期: 92.332分钟
每日圈数: 15.595902
详细信息
使用方式:
暂无
2D轨道图
3D轨道图
轨道高度分析图
轨道倾角分析图
轨道综合分析图
查看轨道综合分析图
交会数据列表
事件ID 空间交会对象 最接近时刻(TCA) 交会距离 交会风险概率(CRP) 交会风险指数(CRI) 操作
CDM_260905-134905-323905-421621
2026-09-05T
13:49:16+0000
0.044 km
近距离
1.086413E-3 极高风险 0.96
CDM_260905-152105-323905-421621
2026-09-05T
15:21:34+0000
0.052 km
近距离
1.003091E-3 极高风险 0.95
CDM_260905-165305-323905-421621
2026-09-05T
16:53:53+0000
0.060 km
近距离
9.223121E-4 高风险 0.94
CDM_260905-182605-323905-421621
2026-09-05T
18:26:11+0000
0.068 km
近距离
8.446324E-4 高风险 0.94
CDM_260905-195805-323905-421621
2026-09-05T
19:58:29+0000
0.077 km
近距离
7.704999E-4 高风险 0.93
CDM_260905-213005-323905-421621
2026-09-05T
21:30:47+0000
0.086 km
近距离
7.002558E-4 高风险 0.92
CDM_260905-230305-323905-421621
2026-09-05T
23:03:05+0000
0.095 km
近距离
6.341416E-4 高风险 0.91
CDM_260906-003505-323905-421621
2026-09-06T
00:35:22+0000
0.106 km
中距离
5.723068E-4 高风险 0.9
CDM_260906-020705-323905-421621
2026-09-06T
02:07:40+0000
0.116 km
中距离
5.148185E-4 高风险 0.89
CDM_260906-033905-323905-421621
2026-09-06T
03:39:57+0000
0.127 km
中距离
4.616711E-4 高风险 0.88